CZ-11 R/B (43872 NORAD) Tracking and Keplerian Element Data

This shows tracking and keplerian element data for the satellite.

Feedback or suggestion? Click here.




ElementValue
Catalog43872
NameCZ-11 R/B
Epoch Orbit357
Epoch Day16.53620554
Epoch Year2019
RAAN29.7737
Inclination100.4317
Eccentricity0.0344231
Argument of Perigee254.7781
Mean Anonmoly101.5078
Mean Motion14.00887225
Decay Rate-2E-08
L11 43872U 18108B 19016.53620554 -.00000002 00000-0 25754-4 0 9999
L22 43872 100.4317 29.7737 0344231 254.7781 101.5078 14.00887225 3572

Live tracking and technical data element details for CZ-11 R/B (NORAD 43872). CZ-11 R/B can be tracked NOW for your location showing map with azimuth and elevation plus other details from your city location.

Track the satellite on the map from your city or location and see movement details for azimuth, elevation, latitude, longitude, range, height, and movement on the map or in text.







IsCatalogInMostPopularTable: catalog: 43872, numindb: 15
Update: records affected: 1



GetName: 43872 CZ-11 R/B

Hit Count: updated at: Thu, 17 Jan 2019 16:05:41 GMT